STARLINK-2251, 48594

Orbit data source: Space-Track

STARLINK-2251, 48594 is a payload satellite owned by SpaceX/Seattle (US) in LEO that was launched on Sat, 15 May 2021 UTC via an FALCON 9 launch vehicle from the Air Force Eastern Test Range (AFETR). Payload-class satellites include a variety of spacecraft equipped with specific instruments for various scientific and technological missions. These include communications satellites like Starlink; space stations such as the ISS; scientific satellites like the Hubble; Earth observation satellites from companies like Planet Labs, Umbra, and HawkEye 360; GPS; miniature CubeSats for education and research; and military/defense satellites.

Loading next visibility...
Identifier
48594, 2021-041AT
Orbit
LEO
Country
Flag of USUS
Related business
Manufacturer
SpaceX/Seattle
Mission
Operational Commercial Communications
Bus & Motor
STARLINK, Unknown motor
Mass
260 kg wet, ~248 kg dry
Launch date (UTC)
2021-05-15 (5 years ago)
Launch vehicle
FALCON 9
Launch site
Air Force Eastern Test Range (AFETR)
Object type
Payload
Rocket body
Debris
Shape & HBR
Box + 1 Pan, 10.1 m
Radar Cross Section
13.562 m², Large (>1 m²)

Expand to show TLE details & history
Last TLE update: 3 days ago

TLE from 3 days ago
0 STARLINK-2251
1 48594U 21041AT  26170.94396605  .00002011  00000-0  81984-4 0  9994
2 48594  53.1617 359.1844 0001016  82.9232 277.1884 15.29367879281109
Epoch: 2026-06-19T22:39Z
TLE epoch observation values (Epoch: 2026-06-19T22:39:18.666Z)
Latitude
-0.00003°
Longitude
111.19092°
Altitude
478.513 km
Speed
7.628 km/s
True Right ascension
23h 56m 44s
True Declination
0° 00' 00"
Sunlit
Object was in daylight at epoch
Visualization orbit readout
Latitude
Unknown
Longitude
Unknown
Altitude
Unknown
Speed
Unknown
Apparent Right ascension
Unknown
Apparent Declination
Unknown
Sunlit
N/A
Visualization observer readout
Local Sidereal Time
21:47:52
Azimuth
Unknown
Elevation
Unknown
Doppler factor
Unknown
Orbital elements
Apogee altitude
478.653 km
Perigee altitude
477.26 km
Semi-major axis
6,856.094 km
Eccentricity
0.0001
Inclination
53.1617°
RAAN
359.1844°
Arg. of periapsis
82.9232°
True anomaly
277.17685°
Mean anomaly
277.1884°
Eccentric anomaly
277.18262°
Mean motion
3.82321 °/min
Orbital period
94.16 mins
BSTAR
0.000081984
Loading maneuver chart data...
Computing Atmospheric mass density...

Documentation

Showing up to 5 results
|